Regional Weather Roundup
Issued by NWS

Home | Current Version | Previous Version | Text Only | Print | Product List | Glossary Off
Versions: 1 2 3 4 5 6 7 8 9 10 11 12 13 14 15 16 17 18 19 20 21 22 23 24 25 26 27

000
ASUS45 KCYS 241510
RWRWY

WYOMING REGIONAL WEATHER ROUNDUP
NATIONAL WEATHER SERVICE CHEYENNE WY
900 AM MDT SAT SEP 24 2016

NOTE:  "FAIR" INDICATES FEW OR NO CLOUDS BELOW 12,000 FEET
WITH NO SIGNIFICANT WEATHER AND/OR OBSTRUCTIONS TO VISIBILITY.

WYZ001-241600-
YELLOWSTONE NATIONAL PARK

CITY           SKY/WX    TMP DP  RH WIND       PRES   REMARKS
LK YELLOWSTONE   N/A     36  34  92 VRB5      30.13R WCI  32
W YELLOWSTONE  NOT AVBL

$$
WYZ002>013-054>058-071-098>099-241600-
NORTHERN WYOMING

CITY           SKY/WX    TMP DP  RH WIND       PRES   REMARKS
JACKSON        CLOUDY    39  39 100 CALM      30.11R
CODY           LGT RAIN  45  43  93 SW7       30.01R
GREYBULL       LGT RAIN  47  45  93 NW16      29.97R
WORLAND        LGT RAIN  47  44  90 N13G22    29.97R
SHERIDAN       RAIN      46  43  89 W25G33    29.90S
BUFFALO        LGT RAIN  44  38  79 NW28G37   29.93R
GILLETTE       LGT RAIN  47  46  97 W13       29.85S
HULETT         CLOUDY    50  46  87 SW12      29.82S
NEWCASTLE      CLOUDY    46  43  87 W12       29.89F

$$
WYZ014>020-022>026-101>103-241600-
CENTRAL WYOMING

CITY           SKY/WX    TMP DP  RH WIND       PRES   REMARKS
BIG PINEY      LGT RAIN  39  36  89 N10       30.08R WCI  32
PINEDALE       CLOUDY    37  36  93 NW15      30.06R WCI  28
DUBOIS         CLOUDY    41  32  70 W21       30.02R
LANDER         LGT RAIN  42  39  89 NW8       30.03R FOG
RIVERTON       LGT RAIN  42  40  92 N14       30.03R
CASPER         LGT RAIN  44  41  89 W16G24    29.96R
DOUGLAS        FAIR      50  41  71 W14       29.92F

$$
WYZ021-027>030-104>119-241600-
SOUTHERN WYOMING

CITY           SKY/WX    TMP DP  RH WIND       PRES   REMARKS
EVANSTON       CLOUDY    35  33  92 W14       30.18R WCI  26
FORT BRIDGER   CLOUDY    37  37 100 W20G26    30.16R WCI  27
ROCK SPRINGS   LGT RAIN  36  35  96 W18       30.09R WCI  26
DIXON          DRIZZLE   41  39  91 SW13      30.12R
RAWLINS        CLOUDY    41  36  82 SW20      30.04R
SARATOGA       CLOUDY    39  36  87 N5        30.08R
LARAMIE        FAIR      37  33  85 S7        30.02R WCI  32
CHEYENNE       FAIR      47  37  68 SW9       30.00R
TORRINGTON     FAIR      50  42  74 SW10      29.93R
PINE BLUFFS    FAIR      48  43  81 S9        30.00R

$$




USA.gov is the U.S. government's official web portal to all federal, state and local government web resources and services.